Location: Hertford
(51.8000°N, 0.0667°W)
Time: 15:30:53
(UTC+00:00)

CZ-4 R/B - Pass Details

Date: 18 September 2020
Orbit: 530 x 600 km, 97.7° (Epoch: 27 October)

Event Time Altitude Azimuth Distance (km) Brightness Sun altitude
Rises 18:45:02 0° 178° (S) 2,838 4.8 -6.7°
Reaches altitude 10° 18:47:15 10° 183° (S) 1,940 4.0 -7.0°
Maximum altitude 18:51:22 51° 260° (W) 756 2.5 -7.6°
Drops below altitude 10° 18:55:30 10° 337° (NNW) 1,941 4.6 -8.2°
Sets 18:57:43 0° 343° (NNW) 2,841 5.4 -8.6°
